Borden/Military, Ontario

9:06 PM EST on December 05, 2016 (GMT -0500)
Borden

Weather History for CYBN - October, 2011

Change the Weather History Date:

Monday, October 3, 2011

  Actual Average Record
Temperature  
Mean Temperature 50 °F -  
Max Temperature 53 °F 60 °F 82 °F (2001)
Min Temperature 46 °F 39 °F 30 °F (2003)
Degree Days  
Heating Degree Days 16    
Moisture  
Dew Point 51 °F    
Average Humidity 100    
Maximum Humidity 100    
Minimum Humidity 94    
Precipitation  
Precipitation 0.24 in - - ()
Sea Level Pressure  
Sea Level Pressure 30.07 in    
Wind  
Wind Speed 6 mph ()    
Max Wind Speed 10 mph    
Max Gust Speed -    
Visibility 5.5 miles    
Events Rain    
Averages and records for this station are not official NWS values.
T = Trace of Precipitation, MM = Missing Value Source: Averaged Metar Reports

Daily Weather History Graph

Daily Weather History Graph

Search for Another Location

Airport or City:

Trip Planner

Search our weather history database for the weather conditions in past years. The results will help you decide how hot, cold, wet, or windy it might be!

Date:

Astronomy

Oct. 03, 2011 Rise Set
Actual Time 7:19 AM EDT 6:57 PM EDT
Civil Twilight 6:50 AM EDT 7:26 PM EDT
Nautical Twilight 6:16 AM EDT 7:59 PM EDT
Astronomical Twilight 5:42 AM EDT 8:33 PM EDT
Moon 2:28 PM EDT (10/3) 11:47 PM EDT (10/3)
Length of Visible Light 12h 35m
Length of Day
11h 37m
Waxing Crescent, 45% of the Moon is Illuminated
Oct 3
Waxing Crescent
Oct 3
First Quarter
Oct 11
Full
Oct 19
Last Quarter
Oct 26
New

Hourly Weather History & Observations

Time (EDT) Temp. Dew Point Humidity Pressure Visibility Wind Dir Wind Speed Gust Speed Precip Events Conditions
12:00 AM 48.2 °F 48.2 °F 100% 30.04 in 9.0 mi NW 5.8 mph - N/A   Overcast
12:19 AM 50.0 °F 48.2 °F 94% 30.02 in 9.0 mi NNW 10.4 mph - N/A   Overcast
12:27 AM 50.0 °F 48.2 °F 94% 30.02 in 9.0 mi NNW 6.9 mph - N/A Rain Light Rain
12:35 AM 50.0 °F 48.2 °F 94% 30.01 in 7.0 mi NNW 8.1 mph - N/A   Overcast
12:46 AM 50.0 °F 48.2 °F 94% 30.01 in 5.0 mi NNW 8.1 mph - N/A Rain Light Rain
12:47 AM 50.0 °F 48.2 °F 94% 30.01 in 5.0 mi NNW 8.1 mph - N/A Rain Light Rain
12:51 AM 50.0 °F 48.2 °F 94% 30.01 in 2.4 mi NNW 8.1 mph - N/A Rain Light Rain
1:00 AM 48.2 °F 48.2 °F 100% 30.02 in 1.5 mi NNW 9.2 mph - N/A Rain Light Rain
1:23 AM 48.2 °F 48.2 °F 100% 29.99 in 2.0 mi NW 3.5 mph - N/A Rain Light Rain
1:42 AM 48.2 °F 48.2 °F 100% 29.98 in 4.0 mi NNW 4.6 mph - N/A Rain Light Rain
2:00 AM 48 °F 48 °F 100% 30.00 in 6 mi NW 3.5 mph - -   Unknown Precipitation
2:03 AM 48.2 °F 48.2 °F 100% 29.98 in 5.0 mi WNW 5.8 mph - N/A Rain Light Rain
2:38 AM 48.2 °F 48.2 °F 100% 30.00 in 2.4 mi NNW 5.8 mph - N/A Rain Light Rain
2:54 AM 48.2 °F 48.2 °F 100% 29.99 in 3.0 mi NNW 5.8 mph - N/A Rain Rain
3:00 AM 48.2 °F 48.2 °F 100% 30.01 in 5.0 mi North 5.8 mph - N/A Rain Light Rain
3:29 AM 48.2 °F 48.2 °F 100% 29.98 in 1.4 mi NNW 4.6 mph - N/A Rain Rain
3:32 AM 48.2 °F 48.2 °F 100% 29.98 in 1.4 mi NNW 5.8 mph - N/A Rain Light Rain
3:41 AM 48.2 °F 48.2 °F 100% 29.98 in 3.0 mi NNW 8.1 mph - N/A Rain Light Rain
3:46 AM 48.2 °F 48.2 °F 100% 29.98 in 9.0 mi North 5.8 mph - N/A Rain Light Rain
3:48 AM 48.2 °F 48.2 °F 100% 29.98 in 9.0 mi NNW 6.9 mph - N/A Rain Light Rain
3:54 AM 48.2 °F 48.2 °F 100% 29.98 in 2.5 mi NNW 8.1 mph - N/A Rain Light Rain
4:00 AM 48.2 °F 48.2 °F 100% 30.00 in 1.6 mi NNW 6.9 mph - N/A Rain Light Rain
4:15 AM 48.2 °F 48.2 °F 100% 29.98 in 2.5 mi NNW 9.2 mph - N/A   Overcast
4:16 AM 48.2 °F 48.2 °F 100% 29.98 in 9.0 mi NNW 10.4 mph - N/A   Scattered Clouds
4:18 AM 48.2 °F 48.2 °F 100% 29.99 in 9.0 mi NNW 8.1 mph - N/A   Overcast
5:00 AM 48.2 °F 48.2 °F 100% 30.01 in 9.0 mi NNW 8.1 mph - N/A   Overcast
5:53 AM 48.2 °F 48.2 °F 100% 30.00 in 9.0 mi NNW 4.6 mph - N/A   Drizzle
6:00 AM 48.2 °F 48.2 °F 100% 30.02 in 3.5 mi North 5.8 mph - N/A   Light Drizzle
6:05 AM 48.2 °F 48.2 °F 100% 30.00 in 3.0 mi North 5.8 mph - N/A   Overcast
6:18 AM 48.2 °F 48.2 °F 100% 30.00 in 3.0 mi North 6.9 mph - N/A   Overcast
6:25 AM 48.2 °F 48.2 °F 100% 30.01 in 3.0 mi North 8.1 mph - N/A   Overcast
6:40 AM 48.2 °F 48.2 °F 100% 30.00 in 3.5 mi North 5.8 mph - N/A   Overcast
6:58 AM 48.2 °F 48.2 °F 100% 30.01 in 7.0 mi North 6.9 mph - N/A   Overcast
7:00 AM 48.2 °F 48.2 °F 100% 30.03 in 8.0 mi NNW 4.6 mph - N/A   Overcast
7:07 AM 48.2 °F 48.2 °F 100% 30.02 in 9.0 mi NNW 6.9 mph - N/A   Overcast
8:00 AM 49 °F 49 °F 98% 30.05 in 3 mi North 3.5 mph - -   Unknown Precipitation
8:23 AM 48.2 °F 48.2 °F 100% 30.04 in 4.0 mi NNW 5.8 mph - N/A   Overcast
9:00 AM 50.0 °F 50.0 °F 100% 30.06 in 9.0 mi NNW 6.9 mph - N/A   Overcast
9:19 AM 50.0 °F 50.0 °F 100% 30.04 in 9.0 mi North 3.5 mph - N/A   Overcast
9:21 AM 50.0 °F 50.0 °F 100% 30.04 in 9.0 mi North 4.6 mph - N/A   Overcast
9:23 AM 50.0 °F 50.0 °F 100% 30.05 in 9.0 mi North 4.6 mph - N/A Rain Light Rain
9:43 AM 50.0 °F 50.0 °F 100% 30.05 in 3.5 mi North 4.6 mph - N/A Rain Light Rain
9:55 AM 50.0 °F 50.0 °F 100% 30.05 in 5.0 mi NNW 5.8 mph - N/A Rain Light Rain
10:00 AM 50.0 °F 50.0 °F 100% 30.07 in 7.0 mi NNW 5.8 mph - N/A Rain Light Rain
10:15 AM 50.0 °F 50.0 °F 100% 30.05 in 9.0 mi North 5.8 mph - N/A Rain Light Rain
10:16 AM 50.0 °F 50.0 °F 100% 30.05 in 9.0 mi North 4.6 mph - N/A Rain Light Rain
10:23 AM 50.0 °F 50.0 °F 100% 30.06 in 3.5 mi North 5.8 mph - N/A Rain Light Rain
10:30 AM 50.0 °F 50.0 °F 100% 30.06 in 3.5 mi North 5.8 mph - N/A Rain Light Rain
10:31 AM 50.0 °F 50.0 °F 100% 30.06 in 4.0 mi North 6.9 mph - N/A Rain Light Rain
10:39 AM 50.0 °F 50.0 °F 100% 30.07 in 5.0 mi North 5.8 mph - N/A   Light Drizzle
10:43 AM 50.0 °F 50.0 °F 100% 30.07 in 2.2 mi North 6.9 mph - N/A   Light Drizzle
10:44 AM 50.0 °F 50.0 °F 100% 30.07 in 2.0 mi North 6.9 mph - N/A   Light Drizzle
10:49 AM 50.0 °F 50.0 °F 100% 30.07 in 1.2 mi North 6.9 mph - N/A Rain Light Rain
10:58 AM 50.0 °F 50.0 °F 100% 30.07 in 1.4 mi North 5.8 mph - N/A Rain Light Rain
11:04 AM 50.0 °F 50.0 °F 100% 30.07 in 2.2 mi North 4.6 mph - N/A Rain Light Rain
12:00 PM 51.8 °F 51.8 °F 100% 30.09 in 9.0 mi North 6.9 mph - N/A   Overcast
12:03 PM 51.8 °F 51.8 °F 100% 30.07 in 9.0 mi North 6.9 mph - N/A   Overcast
12:53 PM 53.6 °F 53.6 °F 100% 30.08 in 5.0 mi North 3.5 mph - N/A   Overcast
1:00 PM 53.6 °F 53.6 °F 100% 30.09 in 6.0 mi NNW 5.8 mph - N/A   Overcast
1:03 PM 53.6 °F 53.6 °F 100% 30.08 in 6.0 mi NNW 5.8 mph - N/A   Overcast
1:11 PM 51.8 °F 51.8 °F 100% 30.08 in 6.0 mi NNW 5.8 mph - N/A Rain Light Rain
1:13 PM 53.6 °F 51.8 °F 94% 30.08 in 7.0 mi North 4.6 mph - N/A   Overcast
1:17 PM 53.6 °F 53.6 °F 100% 30.08 in 9.0 mi North 4.6 mph - N/A   Overcast
1:29 PM 51.8 °F 51.8 °F 100% 30.07 in 9.0 mi NNW 4.6 mph - N/A Rain Light Rain
1:47 PM 53.6 °F 53.6 °F 100% 30.08 in 9.0 mi NNW 4.6 mph - N/A Rain Light Rain
1:50 PM 53.6 °F 53.6 °F 100% 30.07 in 9.0 mi NNW 3.5 mph - N/A   Overcast
1:52 PM 53.6 °F 53.6 °F 100% 30.07 in 9.0 mi North 4.6 mph - N/A   Overcast
2:00 PM 53.6 °F 53.6 °F 100% 30.09 in 9.0 mi NNW 3.5 mph - N/A   Overcast
2:26 PM 53.6 °F 53.6 °F 100% 30.08 in 9.0 mi North 4.6 mph - N/A   Mostly Cloudy
2:52 PM 53.6 °F 53.6 °F 100% 30.08 in 9.0 mi NNW 4.6 mph - N/A   Overcast
3:00 PM 53.6 °F 53.6 °F 100% 30.10 in 7.0 mi NNW 8.1 mph - N/A   Overcast
3:24 PM 53.6 °F 53.6 °F 100% 30.09 in 4.0 mi NNW 8.1 mph - N/A   Overcast
3:35 PM 53.6 °F 53.6 °F 100% 30.09 in 5.0 mi North 5.8 mph - N/A   Overcast
3:42 PM 53.6 °F 53.6 °F 100% 30.09 in 2.5 mi NNW 6.9 mph - N/A   Overcast
3:45 PM 53.6 °F 53.6 °F 100% 30.09 in 2.1 mi NNW 4.6 mph - N/A   Overcast
3:53 PM 53.6 °F 53.6 °F 100% 30.09 in 2.1 mi NNW 6.9 mph - N/A   Overcast
3:56 PM 53.6 °F 53.6 °F 100% 30.09 in 2.1 mi NNW 5.8 mph - N/A   Overcast
4:02 PM 53.6 °F 53.6 °F 100% 30.09 in 2.1 mi NNW 6.9 mph - N/A   Overcast
4:09 PM 53.6 °F 53.6 °F 100% 30.09 in 2.5 mi North 6.9 mph - N/A   Overcast
4:19 PM 53.6 °F 53.6 °F 100% 30.09 in 5.0 mi North 4.6 mph - N/A   Overcast
4:31 PM 53.6 °F 53.6 °F 100% 30.10 in 9.0 mi NNW 8.1 mph - N/A   Overcast
5:00 PM 53.6 °F 53.6 °F 100% 30.12 in 9.0 mi NNW 4.6 mph - N/A   Overcast
5:21 PM 53.6 °F 53.6 °F 100% 30.11 in 9.0 mi North 4.6 mph - N/A   Overcast
5:31 PM 53.6 °F 53.6 °F 100% 30.11 in 9.0 mi North 5.8 mph - N/A   Overcast
6:00 PM 53.6 °F 53.6 °F 100% 30.13 in 9.0 mi North 4.6 mph - N/A   Overcast
6:38 PM 53.6 °F 53.6 °F 100% 30.12 in 4.0 mi North 8.1 mph - N/A   Partly Cloudy
6:40 PM 53.6 °F 53.6 °F 100% 30.12 in 3.5 mi North 5.8 mph - N/A   Overcast
6:42 PM 53.6 °F 53.6 °F 100% 30.12 in 3.0 mi North 4.6 mph - N/A   Overcast
6:46 PM 53.6 °F 53.6 °F 100% 30.12 in 2.5 mi North 4.6 mph - N/A   Mostly Cloudy
7:00 PM 53.6 °F 53.6 °F 100% 30.14 in 2.1 mi NNW 4.6 mph - N/A   Unknown
7:16 PM 51.8 °F 51.8 °F 100% 30.12 in 2.5 mi NNW 4.6 mph - N/A   Overcast
7:23 PM 51.8 °F 51.8 °F 100% 30.12 in 3.5 mi NNW 3.5 mph - N/A   Overcast
7:24 PM 51.8 °F 51.8 °F 100% 30.12 in 3.5 mi NNW 3.5 mph - N/A   Overcast
7:53 PM 53.6 °F 53.6 °F 100% 30.12 in 9.0 mi North 5.8 mph - N/A   Overcast
8:00 PM 53 °F 53 °F 99% 30.14 in 9 mi North 4.6 mph - -   Overcast
8:00 PM 53.6 °F 53.6 °F 100% 30.14 in 9.0 mi North 4.6 mph - N/A   Overcast
8:25 PM 53.6 °F 51.8 °F 94% 30.12 in 9.0 mi NNW 3.5 mph - N/A   Overcast
8:28 PM 53.6 °F 51.8 °F 94% 30.11 in 9.0 mi NNW 2.3 mph - N/A   Overcast
9:00 PM 51.8 °F 51.8 °F 100% 30.12 in 9.0 mi NNW 3.5 mph - N/A   Mostly Cloudy
10:00 PM 51.8 °F 51.8 °F 100% 30.14 in 9.0 mi NW 4.6 mph - N/A   Overcast
10:05 PM 51.8 °F 51.8 °F 100% 30.12 in 9.0 mi NNW 3.5 mph - N/A   Overcast
10:09 PM 51.8 °F 51.8 °F 100% 30.12 in 9.0 mi NNW 4.6 mph - N/A   Overcast
10:16 PM 51.8 °F 51.8 °F 100% 30.12 in 2.5 mi NNW 4.6 mph - N/A   Overcast
10:22 PM 51.8 °F 51.8 °F 100% 30.13 in 2.5 mi NNW 4.6 mph - N/A   Overcast
10:23 PM 53.6 °F 53.6 °F 100% 30.13 in 2.5 mi NNW 4.6 mph - N/A   Overcast
10:26 PM 53.6 °F 53.6 °F 100% 30.13 in 2.5 mi North 6.9 mph - N/A   Overcast
10:31 PM 53.6 °F 53.6 °F 100% 30.13 in 2.2 mi North 6.9 mph - N/A   Overcast
10:34 PM 53.6 °F 53.6 °F 100% 30.13 in 2.0 mi North 6.9 mph - N/A   Light Drizzle
10:48 PM 53.6 °F 53.6 °F 100% 30.14 in 2.1 mi North 10.4 mph - N/A   Overcast
11:00 PM 53.6 °F 53.6 °F 100% 30.15 in 2.5 mi NNW 8.1 mph - N/A   Mostly Cloudy
11:03 PM 53.6 °F 53.6 °F 100% 30.14 in 3.0 mi NNW 6.9 mph - N/A   Mostly Cloudy
11:07 PM 53.6 °F 53.6 °F 100% 30.14 in 2.5 mi NNW 8.1 mph - N/A   Overcast
11:08 PM 53.6 °F 53.6 °F 100% 30.14 in 2.4 mi NNW 8.1 mph - N/A   Light Drizzle
11:32 PM 53.6 °F 53.6 °F 100% 30.13 in 6.0 mi NW 3.5 mph - N/A   Light Drizzle
11:35 PM 53.6 °F 53.6 °F 100% 30.13 in 6.0 mi NNW 4.6 mph - N/A   Light Drizzle